W7KKE-3 Weather Reports


Display with metric or nautical units.
time (UTC)temp
F
wind
direction
speed
MPH
gust
MPH
rain 1hr
in
rain 24hr
in
rain mn
in
humidity
%
barometer
mb
20140722112022 57 0 0.0 0.0 0.00 0.00 0.00 86 1016.9
20140722111522 57 0 0.0 0.0 0.00 0.00 0.00 86 1016.8
20140722111022 57 0 0.0 0.0 0.00 0.00 0.00 86 1016.8
20140722110522 58 0 0.0 0.0 0.00 0.00 0.00 86 1016.9
20140722110022 58 0 0.0 0.0 0.00 0.00 0.00 86 1016.8
20140722105522 58 0 0.0 0.0 0.00 0.00 0.00 86 1016.8
20140722105022 58 0 0.0 0.0 0.00 0.00 0.00 86 1016.8
20140722104522 58 0 0.0 0.0 0.00 0.00 0.00 86 1016.8
20140722104022 58 0 0.0 0.0 0.00 0.00 0.00 86 1016.8
20140722103522 58 0 0.0 0.0 0.00 0.00 0.00 86 1016.8
20140722103022 58 0 0.0 0.0 0.00 0.00 0.00 86 1016.8
20140722102522 58 0 0.0 0.0 0.00 0.00 0.00 86 1016.8
20140722102022 58 0 0.0 0.0 0.00 0.00 0.00 86 1016.9
20140722101522 58 0 0.0 0.0 0.00 0.00 0.00 86 1016.9
20140722101022 58 0 0.0 0.0 0.00 0.00 0.00 86 1017.0
20140722100522 59 0 0.0 0.0 0.00 0.00 0.00 86 1017.0
20140722100022 59 0 0.0 0.0 0.00 0.00 0.00 86 1017.0
20140722095523 58 0 0.0 0.0 0.00 0.00 0.00 87 1017.0
20140722095022 58 0 0.0 0.0 0.00 0.00 0.00 86 1017.1
20140722094522 58 0 0.0 0.0 0.00 0.00 0.00 86 1017.1
20140722094022 57 0 0.0 0.0 0.00 0.00 0.00 86 1017.0
20140722093522 58 0 0.0 0.0 0.00 0.00 0.00 85 1017.1
20140722093022 57 0 0.0 0.0 0.00 0.00 0.00 85 1017.1
20140722092523 57 0 0.0 0.0 0.00 0.00 0.00 85 1017.1
20140722092022 57 0 0.0 0.0 0.00 0.00 0.00 85 1017.0
20140722091522 58 0 0.0 0.0 0.00 0.00 0.00 85 1017.0
20140722091022 57 0 0.0 0.0 0.00 0.00 0.00 85 1017.1
20140722090522 58 0 0.0 0.0 0.00 0.00 0.00 85 1017.1
20140722090022 58 0 0.0 0.0 0.00 0.00 0.00 85 1017.1
20140722085522 58 0 0.0 0.0 0.00 0.00 0.00 85 1017.2
20140722085022 58 0 0.0 0.0 0.00 0.00 0.00 85 1017.2
20140722084522 59 0 0.0 0.0 0.00 0.00 0.00 85 1017.2
20140722084022 58 0 0.0 0.0 0.00 0.00 0.00 85 1017.2
20140722083522 58 0 0.0 0.0 0.00 0.00 0.00 85 1017.1
20140722083022 58 0 0.0 0.0 0.00 0.00 0.00 85 1017.1
20140722082522 58 0 0.0 0.0 0.00 0.00 0.00 85 1017.1
20140722082022 58 0 0.0 0.0 0.00 0.00 0.00 85 1017.1
20140722081522 58 0 0.0 0.0 0.00 0.00 0.00 85 1017.1
20140722081022 58 0 0.0 0.0 0.00 0.00 0.00 85 1017.1
20140722080522 58 0 0.0 0.0 0.00 0.00 0.00 85 1017.2
20140722080022 58 0 0.0 0.0 0.00 0.00 0.00 84 1017.1
20140722075522 58 0 0.0 0.0 0.00 0.00 0.00 84 1017.2
20140722075022 58 0 0.0 0.0 0.00 0.00 0.00 84 1017.2
20140722074522 58 0 0.0 0.0 0.00 0.00 0.00 84 1017.1
20140722074022 59 0 0.0 0.0 0.00 0.00 0.00 84 1017.1
20140722073522 59 0 0.0 9.0 0.00 0.00 0.00 84 1017.2
20140722073022 59 123 0.0 9.0 0.00 0.00 0.00 85 1017.2
20140722072522 59 161 0.0 9.0 0.00 0.00 0.00 85 1017.2
20140722072022 59 170 1.0 5.0 0.00 0.00 0.00 84 1017.2
20140722071522 59 180 0.0 5.0 0.00 0.00 0.00 84 1017.2
20140722071022 59 0 0.0 1.0 0.00 0.00 0.00 83 1017.1
20140722070522 59 0 0.0 0.0 0.00 0.00 0.00 83 1017.1
20140722070033 59 0 0.0 3.0 0.00 0.00 0.00 83 1017.1
20140722065522 59 0 0.0 3.0 0.00 0.00 0.00 83 1017.0
20140722065022 59 147 0.0 3.0 0.00 0.00 0.00 83 1017.0
20140722064522 59 0 0.0 0.0 0.00 0.00 0.00 82 1017.0
20140722064022 59 0 0.0 0.0 0.00 0.00 0.00 81 1016.9
20140722063522 59 0 0.0 0.0 0.00 0.00 0.00 81 1016.9
20140722063023 59 0 0.0 0.0 0.00 0.00 0.00 81 1016.8
20140722062522 59 0 0.0 0.0 0.00 0.00 0.00 80 1017.0
20140722062022 59 0 0.0 0.0 0.00 0.00 0.00 80 1016.9
20140722061522 59 0 0.0 0.0 0.00 0.00 0.00 79 1017.0
20140722061022 59 0 0.0 0.0 0.00 0.00 0.00 79 1016.9
20140722060522 60 0 0.0 0.0 0.00 0.00 0.00 79 1016.9
20140722060022 60 0 0.0 3.0 0.00 0.00 0.00 78 1016.9
20140722055524 60 0 0.0 3.0 0.00 0.00 0.00 78 1016.9
20140722055022 60 44 0.0 3.0 0.00 0.00 0.00 78 1016.9
20140722054522 60 43 1.0 6.0 0.00 0.00 0.00 78 1016.8
20140722054022 60 0 0.0 6.0 0.00 0.00 0.00 77 1016.7
20140722053522 61 317 0.0 6.0 0.00 0.00 0.00 77 1016.7
20140722053022 61 324 0.0 5.0 0.00 0.00 0.00 77 1016.7
20140722052522 61 313 1.0 8.0 0.00 0.00 0.00 77 1016.7
20140722052022 61 305 1.0 8.0 0.00 0.00 0.00 77 1016.7
20140722051522 61 324 5.0 8.0 0.00 0.00 0.00 77 1016.7
20140722051022 61 338 6.0 7.0 0.00 0.00 0.00 77 1016.7
20140722050522 61 295 5.0 6.0 0.00 0.00 0.00 76 1016.7
20140722050022 61 331 0.0 6.0 0.00 0.00 0.00 75 1016.6
20140722045522 61 341 2.0 6.0 0.00 0.00 0.00 75 1016.7
20140722045022 61 296 4.0 5.0 0.00 0.00 0.00 75 1016.6
20140722044522 61 316 2.0 4.0 0.00 0.00 0.00 75 1016.7
20140722044022 61 252 0.0 4.0 0.00 0.00 0.00 75 1016.6
20140722043522 61 0 0.0 2.0 0.00 0.00 0.00 74 1016.7
20140722043022 62 0 0.0 0.0 0.00 0.00 0.00 74 1016.6
20140722042522 62 0 0.0 6.0 0.00 0.00 0.00 74 1016.4
20140722042022 62 316 0.0 6.0 0.00 0.00 0.00 73 1016.3
20140722041522 62 298 3.0 6.0 0.00 0.00 0.00 73 1016.3
20140722041022 63 301 1.0 5.0 0.00 0.00 0.00 73 1016.2
20140722040522 63 0 0.0 3.0 0.00 0.00 0.00 73 1015.9
20140722040022 63 309 0.0 3.0 0.00 0.00 0.00 73 1015.8
20140722035522 63 0 1.0 1.0 0.00 0.00 0.00 73 1015.8
20140722035022 63 0 0.0 0.0 0.00 0.00 0.00 73 1015.8
20140722034522 63 310 0.0 9.0 0.00 0.00 0.00 73 1015.7
20140722034022 63 322 2.0 9.0 0.00 0.00 0.00 72 1015.7
20140722033522 64 322 3.0 9.0 0.00 0.00 0.00 72 1015.7
20140722033022 64 319 6.0 12.0 0.00 0.00 0.00 72 1015.6
20140722032522 64 309 7.0 12.0 0.00 0.00 0.00 73 1015.7
20140722032022 64 324 7.0 12.0 0.00 0.00 0.00 73 1015.7
20140722031522 64 315 7.0 15.0 0.00 0.00 0.00 73 1015.7
20140722031023 65 302 8.0 15.0 0.00 0.00 0.00 73 1015.7
20140722030522 64 309 8.0 15.0 0.00 0.00 0.00 73 1015.6
20140722030022 64 315 10.0 15.0 0.00 0.00 0.00 73 1015.7
20140722025522 64 315 10.0 15.0 0.00 0.00 0.00 72 1015.7
20140722025022 65 308 8.0 15.0 0.00 0.00 0.00 71 1015.6
20140722024522 65 315 11.0 14.0 0.00 0.00 0.00 72 1015.7
20140722024024 65 330 10.0 14.0 0.00 0.00 0.00 72 1015.7
20140722023524 64 324 9.0 18.0 0.00 0.00 0.00 72 1015.7
20140722023022 65 334 11.0 18.0 0.00 0.00 0.00 72 1015.6
20140722022522 65 313 10.0 18.0 0.00 0.00 0.00 72 1015.6
20140722022022 65 326 11.0 17.0 0.00 0.00 0.00 71 1015.6
20140722021523 65 331 10.0 16.0 0.00 0.00 0.00 71 1015.7
20140722021022 66 319 11.0 19.0 0.00 0.00 0.00 71 1015.8
20140722020522 65 313 13.0 19.0 0.00 0.00 0.00 71 1015.7
20140722020022 66 310 10.0 19.0 0.00 0.00 0.00 70 1015.7
20140722015522 66 315 12.0 18.0 0.00 0.00 0.00 70 1015.7
20140722015022 66 309 12.0 18.0 0.00 0.00 0.00 70 1015.7
20140722014522 66 334 10.0 18.0 0.00 0.00 0.00 69 1015.7
20140722014023 66 292 11.0 18.0 0.00 0.00 0.00 70 1015.7
20140722013522 66 319 12.0 17.0 0.00 0.00 0.00 70 1015.8
20140722013022 66 310 12.0 21.0 0.00 0.00 0.00 69 1015.7
20140722012522 66 329 12.0 21.0 0.00 0.00 0.00 69 1015.8
20140722012022 66 337 13.0 21.0 0.00 0.00 0.00 69 1015.7
20140722011522 67 337 11.0 18.0 0.00 0.00 0.00 68 1015.8
20140722011022 66 330 12.0 18.0 0.00 0.00 0.00 68 1015.8
20140722010522 67 308 14.0 17.0 0.00 0.00 0.00 67 1015.6
20140722010022 66 312 12.0 18.0 0.00 0.00 0.00 67 1015.7
20140722005522 67 337 11.0 18.0 0.00 0.00 0.00 65 1015.8
20140722005022 67 344 11.0 18.0 0.00 0.00 0.00 65 1015.7
20140722004522 68 327 13.0 17.0 0.00 0.00 0.00 65 1015.7
20140722004022 67 319 11.0 16.0 0.00 0.00 0.00 64 1015.7
20140722003522 68 302 12.0 17.0 0.00 0.00 0.00 63 1015.7
20140722003022 68 313 11.0 17.0 0.00 0.00 0.00 63 1015.7
20140722002522 68 315 11.0 17.0 0.00 0.00 0.00 64 1015.7
20140722002022 68 317 11.0 16.0 0.00 0.00 0.00 64 1015.7
20140722001522 68 306 9.0 16.0 0.00 0.00 0.00 63 1015.6
20140722001022 69 316 12.0 16.0 0.00 0.00 0.00 63 1015.6
20140722000522 69 320 10.0 16.0 0.00 0.00 0.00 63 1015.6
20140722000022 69 322 10.0 16.0 0.00 0.00 0.00 63 1015.7
20140721235522 69 309 11.0 16.0 0.00 0.00 0.00 63 1015.7
20140721235022 69 302 9.0 18.0 0.00 0.00 0.00 63 1015.7
20140721234522 69 296 10.0 18.0 0.00 0.00 0.00 64 1015.7
20140721234022 68 319 11.0 18.0 0.00 0.00 0.00 64 1015.7
20140721233522 68 301 12.0 20.0 0.00 0.00 0.00 64 1015.7
20140721233022 68 334 12.0 20.0 0.00 0.00 0.00 64 1015.8
20140721232522 68 298 13.0 20.0 0.00 0.00 0.00 63 1015.8
20140721232022 68 303 13.0 18.0 0.00 0.00 0.00 63 1015.8
20140721231522 69 310 12.0 21.0 0.00 0.00 0.00 62 1015.9
20140721231022 69 323 10.0 21.0 0.00 0.00 0.00 63 1015.9
20140721230522 69 309 12.0 21.0 0.00 0.00 0.00 63 1015.9
20140721230022 69 308 13.0 21.0 0.00 0.00 0.00 63 1016.0
20140721225522 69 312 13.0 21.0 0.00 0.00 0.00 62 1016.0
20140721225022 69 326 13.0 21.0 0.00 0.00 0.00 62 1016.0
20140721224522 69 313 12.0 20.0 0.00 0.00 0.00 62 1016.0
20140721224022 70 306 12.0 20.0 0.00 0.00 0.00 61 1016.1
20140721223522 70 319 13.0 22.0 0.00 0.00 0.00 61 1016.1
20140721223022 69 323 12.0 22.0 0.00 0.00 0.00 61 1016.1
20140721222522 70 330 13.0 22.0 0.00 0.00 0.00 61 1016.0
20140721222022 69 322 13.0 18.0 0.00 0.00 0.00 61 1016.1
20140721221522 69 313 12.0 20.0 0.00 0.00 0.00 60 1016.1
20140721221022 69 312 13.0 20.0 0.00 0.00 0.00 59 1016.1
20140721220522 69 310 12.0 20.0 0.00 0.00 0.00 59 1016.0
20140721220022 69 310 12.0 18.0 0.00 0.00 0.00 58 1016.0
20140721215522 70 308 12.0 18.0 0.00 0.00 0.00 58 1016.0
20140721215022 70 323 13.0 21.0 0.00 0.00 0.00 59 1016.0
20140721214522 70 310 13.0 21.0 0.00 0.00 0.00 58 1016.0
20140721214022 70 327 13.0 21.0 0.00 0.00 0.00 59 1016.0
20140721213522 70 322 12.0 20.0 0.00 0.00 0.00 59 1015.9
20140721213022 70 329 10.0 20.0 0.00 0.00 0.00 58 1016.0
20140721212524 69 309 14.0 19.0 0.00 0.00 0.00 58 1016.1
20140721212022 69 299 12.0 19.0 0.00 0.00 0.00 58 1016.0
20140721211522 70 317 11.0 19.0 0.00 0.00 0.00 59 1016.1
20140721211022 69 302 12.0 18.0 0.00 0.00 0.00 60 1016.1
20140721210522 70 336 11.0 18.0 0.00 0.00 0.00 60 1016.0
20140721210022 69 316 12.0 18.0 0.00 0.00 0.00 60 1016.0
20140721205522 69 308 11.0 19.0 0.00 0.00 0.00 61 1016.0
20140721205022 70 313 11.0 19.0 0.00 0.00 0.00 60 1016.0
20140721204522 69 306 12.0 19.0 0.00 0.00 0.00 60 1016.0
20140721204022 69 319 11.0 19.0 0.00 0.00 0.00 60 1016.1
20140721203521 69 308 10.0 19.0 0.00 0.00 0.00 61 1016.2
20140721203021 70 315 10.0 19.0 0.00 0.00 0.00 60 1016.2
20140721202522 69 334 13.0 18.0 0.00 0.00 0.00 59 1016.2
20140721202022 69 317 11.0 18.0 0.00 0.00 0.00 59 1016.1
20140721201521 69 313 10.0 18.0 0.00 0.00 0.00 60 1016.2
20140721201021 69 317 11.0 17.0 0.00 0.00 0.00 60 1016.2
20140721200521 69 316 12.0 17.0 0.00 0.00 0.00 60 1016.2
20140721200021 69 317 11.0 15.0 0.00 0.00 0.00 60 1016.2
20140721195521 70 331 10.0 14.0 0.00 0.00 0.00 60 1016.2
20140721195021 70 312 8.0 17.0 0.00 0.00 0.00 60 1016.2
20140721194521 69 310 10.0 17.0 0.00 0.00 0.00 60 1016.2
20140721194022 69 320 11.0 17.0 0.00 0.00 0.00 59 1016.3
20140721193521 70 333 11.0 14.0 0.00 0.00 0.00 60 1016.4
20140721193021 70 323 9.0 16.0 0.00 0.00 0.00 60 1016.5
20140721192521 70 313 10.0 16.0 0.00 0.00 0.00 60 1016.5
20140721192021 69 306 9.0 16.0 0.00 0.00 0.00 60 1016.5
20140721191521 69 294 9.0 14.0 0.00 0.00 0.00 61 1016.5
20140721191021 69 305 8.0 14.0 0.00 0.00 0.00 60 1016.6
20140721190521 68 323 9.0 14.0 0.00 0.00 0.00 62 1016.6
20140721190021 69 313 10.0 13.0 0.00 0.00 0.00 61 1016.6
20140721185521 70 329 9.0 12.0 0.00 0.00 0.00 60 1016.7
20140721185021 70 295 8.0 12.0 0.00 0.00 0.00 61 1016.7
20140721184521 70 338 7.0 12.0 0.00 0.00 0.00 61 1016.7
20140721184021 69 324 8.0 12.0 0.00 0.00 0.00 62 1016.7
20140721183521 70 327 7.0 12.0 0.00 0.00 0.00 61 1016.8
20140721183021 69 323 6.0 8.0 0.00 0.00 0.00 62 1016.9
20140721182521 69 294 5.0 8.0 0.00 0.00 0.00 64 1017.0
20140721182021 68 275 4.0 8.0 0.00 0.00 0.00 66 1017.0
20140721181521 67 303 4.0 7.0 0.00 0.00 0.00 67 1017.0
20140721181021 67 278 4.0 6.0 0.00 0.00 0.00 68 1017.0
20140721180521 67 295 3.0 6.0 0.00 0.00 0.00 68 1017.0
20140721180021 67 298 3.0 6.0 0.00 0.00 0.00 67 1016.9
20140721175521 68 0 5.0 5.0 0.00 0.00 0.00 67 1016.9
20140721175021 67 0 0.0 0.0 0.00 0.00 0.00 67 1016.9
20140721174521 67 0 0.0 0.0 0.00 0.00 0.00 67 1016.9
20140721174021 67 0 0.0 0.0 0.00 0.00 0.00 68 1016.9
20140721173523 66 0 0.0 0.0 0.00 0.00 0.00 70 1016.9
20140721173021 66 0 0.0 0.0 0.00 0.00 0.00 70 1016.9
20140721172521 65 0 0.0 0.0 0.00 0.00 0.00 70 1016.9
20140721172021 65 0 0.0 0.0 0.00 0.00 0.00 71 1016.9
20140721171521 64 0 0.0 0.0 0.00 0.00 0.00 72 1016.9
20140721171021 64 0 0.0 0.0 0.00 0.00 0.00 72 1017.0
20140721170521 64 0 0.0 0.0 0.00 0.00 0.00 73 1016.9
20140721170021 64 0 0.0 0.0 0.00 0.00 0.00 73 1016.8
20140721165521 64 0 0.0 0.0 0.00 0.00 0.00 73 1016.8
20140721165021 64 0 0.0 0.0 0.00 0.00 0.00 73 1016.8
20140721164521 64 0 0.0 0.0 0.00 0.00 0.00 73 1016.8
20140721164021 64 0 0.0 0.0 0.00 0.00 0.00 73 1016.9
20140721163521 64 0 0.0 0.0 0.00 0.00 0.00 74 1017.0
20140721163021 63 0 0.0 0.0 0.00 0.00 0.00 75 1017.0
20140721162521 63 0 0.0 0.0 0.00 0.00 0.00 76 1017.1
20140721162021 63 0 0.0 0.0 0.00 0.00 0.00 77 1017.2
20140721161521 62 0 0.0 0.0 0.00 0.00 0.00 77 1017.1
20140721161021 61 0 0.0 0.0 0.00 0.00 0.00 79 1017.1
20140721160024 60 0 0.0 0.0 0.00 0.00 0.00 81 1017.2
20140721155022 59 0 0.0 0.0 0.00 0.00 0.00 83 1017.3
20140721154522 59 0 0.0 0.0 0.00 0.00 0.00 85 1017.3
20140721154021 58 0 0.0 0.0 0.00 0.00 0.00 86 1017.2
20140721153521 58 0 0.0 0.0 0.00 0.00 0.00 87 1017.3
20140721153021 57 0 0.0 0.0 0.00 0.00 0.00 87 1017.3
20140721152522 56 0 0.0 0.0 0.00 0.00 0.00 87 1017.3
20140721152021 57 0 0.0 0.0 0.00 0.00 0.00 88 1017.2
20140721151521 56 0 0.0 0.0 0.00 0.00 0.00 88 1017.3
20140721151021 56 0 0.0 0.0 0.00 0.00 0.00 88 1017.3
20140721150521 56 0 0.0 0.0 0.00 0.00 0.00 88 1017.3
20140721150021 56 0 0.0 0.0 0.00 0.00 0.00 88 1017.3
20140721145521 56 0 0.0 0.0 0.00 0.00 0.00 88 1017.3
20140721145022 55 0 0.0 0.0 0.00 0.00 0.00 88 1017.3
20140721144521 55 0 0.0 0.0 0.00 0.00 0.00 88 1017.2
20140721144021 55 0 0.0 0.0 0.00 0.00 0.00 88 1017.2
20140721143521 55 0 0.0 0.0 0.00 0.00 0.00 88 1017.2
20140721143021 55 0 0.0 0.0 0.00 0.00 0.00 88 1017.1
20140721142521 55 0 0.0 0.0 0.00 0.00 0.00 88 1017.0
20140721142021 55 0 0.0 0.0 0.00 0.00 0.00 88 1017.0
20140721141521 55 0 0.0 0.0 0.00 0.00 0.00 88 1016.9
20140721141021 55 0 0.0 0.0 0.00 0.00 0.00 88 1016.9
20140721140521 55 92 0.0 4.0 0.00 0.00 0.00 88 1016.9
20140721140022 55 0 0.0 4.0 0.00 0.00 0.00 88 1016.9
20140721135521 55 95 0.0 4.0 0.00 0.00 0.00 88 1016.9
20140721135021 54 70 0.0 2.0 0.00 0.00 0.00 89 1016.8
20140721134521 54 46 0.0 2.0 0.00 0.00 0.00 89 1016.8
20140721134022 54 0 0.0 0.0 0.00 0.00 0.00 89 1016.7
20140721133521 53 0 0.0 0.0 0.00 0.00 0.00 89 1016.6
20140721133021 54 0 0.0 0.0 0.00 0.00 0.00 89 1016.7
20140721132521 54 0 0.0 0.0 0.00 0.00 0.00 89 1016.6
20140721132021 54 0 0.0 0.0 0.00 0.00 0.00 89 1016.6
20140721131521 54 0 0.0 0.0 0.00 0.00 0.00 89 1016.7
20140721131021 54 0 0.0 0.0 0.00 0.00 0.00 89 1016.6
20140721130521 53 0 0.0 0.0 0.00 0.00 0.00 89 1016.6
20140721130021 54 0 0.0 0.0 0.00 0.00 0.00 88 1016.6
20140721125521 54 0 0.0 0.0 0.00 0.00 0.00 88 1016.7
20140721125021 54 0 0.0 0.0 0.00 0.00 0.00 88 1016.8
20140721124521 54 0 0.0 0.0 0.00 0.00 0.00 88 1016.8
20140721124021 54 0 0.0 0.0 0.00 0.00 0.00 88 1016.9
20140721123522 54 0 0.0 0.0 0.00 0.00 0.00 89 1016.9
20140721123021 54 0 0.0 0.0 0.00 0.00 0.00 88 1016.9
20140721122521 54 0 0.0 0.0 0.00 0.00 0.00 89 1016.9
20140721122021 54 0 0.0 0.0 0.00 0.00 0.00 89 1016.9
20140721121521 53 0 0.0 0.0 0.00 0.00 0.00 89 1017.0
20140721121021 54 0 0.0 0.0 0.00 0.00 0.00 88 1016.9
20140721120521 54 0 0.0 0.0 0.00 0.00 0.00 88 1016.9
20140721120021 54 0 0.0 0.0 0.00 0.01 0.00 88 1016.8
20140721115521 54 0 0.0 0.0 0.00 0.01 0.00 88 1016.8
20140721115021 54 0 0.0 0.0 0.00 0.01 0.00 88 1016.8
20140721114521 54 0 0.0 0.0 0.00 0.01 0.00 88 1016.8
20140721114021 54 0 0.0 0.0 0.00 0.01 0.00 88 1016.8
20140721113521 54 0 0.0 0.0 0.00 0.01 0.00 88 1016.7
20140721113021 54 0 0.0 3.0 0.00 0.01 0.00 88 1016.7
20140721112521 54 0 0.0 3.0 0.00 0.01 0.00 88 1016.7